XJS F (45253 NORAD) Tracking and Keplerian Element Data

This shows tracking and keplerian element data for the satellite.

Feedback or suggestion? Click here.




ElementValue
Catalog45253
NameXJS F
Epoch Orbit2236
Epoch Day197.16097462
Epoch Year2020
RAAN233.3112
Inclination35.0102
Eccentricity0.0007296
Argument of Perigee131.8552
Mean Anonmoly271.1129
Mean Motion15.28286309
Decay Rate7.59E-06
L11 45253U 20014E 20197.16097462 .00000759 00000-0 28237-4 0 9997
L22 45253 35.0102 233.3112 0007296 131.8552 271.1129 15.28286309 22366

Live tracking and technical data element details for XJS F (NORAD 45253). XJS F can be tracked NOW for your location showing map with azimuth and elevation plus other details from your city location.

Track the satellite on the map from your city or location and see movement details for azimuth, elevation, latitude, longitude, range, height, and movement on the map or in text.







IsCatalogInMostPopularTable: catalog: 45253, numindb: 33
Update: records affected: 1



GetName: 45253 XJS F

Hit Count: updated at: Thu, 16 Jul 2020 02:50:15 GMT